TimeCDT,TemperatureF,Dew PointF,Humidity,Sea Level PressureIn,VisibilityMPH,Wind Direction,Wind SpeedMPH,Gust SpeedMPH,PrecipitationIn,Events,Conditions,WindDirDegrees,DateUTC
12:54 AM,84.0,71.1,65,29.90,10.0,SW,12.7,20.7,N/A,,Mostly Cloudy,230,2013-06-27 05:54:00
1:54 AM,82.9,72.0,69,29.89,10.0,SW,10.4,-,N/A,,Mostly Cloudy,230,2013-06-27 06:54:00
2:54 AM,82.0,72.0,71,29.89,10.0,SW,12.7,20.7,N/A,,Overcast,230,2013-06-27 07:54:00
3:54 AM,81.0,72.0,74,29.88,10.0,SW,10.4,-,N/A,,Mostly Cloudy,230,2013-06-27 08:54:00
4:54 AM,81.0,73.0,77,29.90,10.0,WSW,5.8,-,N/A,,Overcast,250,2013-06-27 09:54:00
5:54 AM,80.1,73.0,79,29.91,10.0,WSW,5.8,-,N/A,,Mostly Cloudy,240,2013-06-27 10:54:00
6:54 AM,81.0,73.0,77,29.91,10.0,WSW,8.1,-,N/A,,Overcast,250,2013-06-27 11:54:00
7:54 AM,82.9,73.0,72,29.92,10.0,West,6.9,-,N/A,,Overcast,260,2013-06-27 12:54:00
8:25 AM,84.2,73.4,70,29.94,10.0,West,9.2,-,N/A,,Overcast,260,2013-06-27 13:25:00
8:47 AM,86.0,73.4,66,29.94,10.0,WSW,11.5,-,N/A,,Mostly Cloudy,250,2013-06-27 13:47:00
8:54 AM,86.0,73.9,67,29.92,10.0,WSW,11.5,-,N/A,,Mostly Cloudy,240,2013-06-27 13:54:00
9:54 AM,89.1,75.9,65,29.92,10.0,WSW,8.1,-,N/A,,Mostly Cloudy,250,2013-06-27 14:54:00
10:54 AM,91.0,75.9,61,29.92,10.0,West,8.1,17.3,N/A,,Mostly Cloudy,280,2013-06-27 15:54:00
11:54 AM,91.9,75.9,59,29.91,10.0,WNW,8.1,-,N/A,,Mostly Cloudy,290,2013-06-27 16:54:00
12:54 PM,93.9,75.9,56,29.91,10.0,WSW,10.4,-,N/A,,Mostly Cloudy,250,2013-06-27 17:54:00
1:01 PM,93.2,75.2,56,29.92,10.0,West,10.4,16.1,N/A,,Mostly Cloudy,260,2013-06-27 18:01:00
1:10 PM,95.0,75.2,53,29.92,10.0,WNW,11.5,16.1,N/A,,Mostly Cloudy,290,2013-06-27 18:10:00
1:54 PM,95.0,75.9,54,29.90,10.0,WNW,8.1,-,N/A,,Scattered Clouds,290,2013-06-27 18:54:00
2:54 PM,96.1,77.0,54,29.89,10.0,Variable,5.8,-,N/A,,Scattered Clouds,0,2013-06-27 19:54:00
3:54 PM,97.0,75.9,51,29.88,10.0,West,6.9,-,N/A,,Scattered Clouds,260,2013-06-27 20:54:00
4:27 PM,95.0,73.4,49,29.88,10.0,Calm,Calm,-,N/A,Thunderstorm,Thunderstorm,0,2013-06-27 21:27:00
4:54 PM,93.0,73.9,54,29.86,10.0,SSE,4.6,-,N/A,Thunderstorm,Thunderstorm,160,2013-06-27 21:54:00
5:31 PM,89.6,73.4,59,29.86,10.0,South,8.1,-,N/A,,Mostly Cloudy,190,2013-06-27 22:31:00
5:54 PM,87.1,71.1,59,29.85,10.0,South,10.4,16.1,N/A,,Mostly Cloudy,180,2013-06-27 22:54:00
6:11 PM,87.8,71.6,58,29.85,9.0,South,8.1,-,N/A,Thunderstorm,Thunderstorm,190,2013-06-27 23:11:00
6:29 PM,84.2,71.6,66,29.84,0.5,NW,36.8,49.5,0.00,Rain-Thunderstorm,Thunderstorms and Rain,310,2013-06-27 23:29:00
6:46 PM,77.0,69.8,78,29.96,0.5,WNW,28.8,52.9,0.79,Rain-Thunderstorm,Thunderstorms and Rain,290,2013-06-27 23:46:00
6:54 PM,75.0,63.0,66,29.88,0.8,WSW,17.3,52.9,1.03,Rain-Thunderstorm,Thunderstorms and Rain,250,2013-06-27 23:54:00
6:57 PM,75.2,66.2,73,29.88,2.0,West,16.1,51.8,0.18,Rain-Thunderstorm,Thunderstorms and Rain,260,2013-06-27 23:57:00
7:13 PM,77.0,68.0,74,29.89,7.0,SE,6.9,-,0.31,Rain-Thunderstorm,Light Thunderstorms and Rain,140,2013-06-28 00:13:00
7:22 PM,75.2,69.8,83,29.89,9.0,SSE,4.6,-,0.31,Rain,Light Rain,150,2013-06-28 00:22:00
7:54 PM,75.0,70.0,84,29.88,10.0,Calm,Calm,-,0.31,,Mostly Cloudy,0,2013-06-28 00:54:00
8:54 PM,75.0,71.1,87,29.85,10.0,South,3.5,-,N/A,,Mostly Cloudy,180,2013-06-28 01:54:00
9:54 PM,75.9,72.0,87,29.81,10.0,South,3.5,-,N/A,,Overcast,170,2013-06-28 02:54:00
10:54 PM,75.0,72.0,90,29.87,10.0,SW,5.8,-,N/A,,Overcast,230,2013-06-28 03:54:00
11:54 PM,75.0,70.0,84,29.85,10.0,SW,3.5,-,N/A,,Mostly Cloudy,230,2013-06-28 04:54:00